FW7241 Weather Reports


time (UTC)temp
C
wind
direction
speed
KPH
gust
KPH
rain 1hr
cm
rain 24hr
cm
rain mn
cm
humidity
%
barometer
mb
20260507144111 16 75 6.4 17.7 0.00 1.68 0.61 63 1015.4
20260507143110 16 325 4.8 14.5 0.00 1.68 0.61 65 1015.5
20260507141110 16 245 4.8 8.0 0.00 1.68 0.61 67 1015.6
20260507140110 16 324 4.8 9.7 0.00 1.68 0.61 68 1015.7
20260507134110 16 13 4.8 14.5 0.00 1.68 0.61 69 1015.8
20260507133110 16 54 6.4 9.7 0.00 1.68 0.61 70 1015.8
20260507132110 15 43 4.8 12.9 0.00 1.68 0.61 73 1015.9
20260507131110 15 74 4.8 12.9 0.00 1.68 0.61 74 1015.9
20260507124109 14 44 8.0 14.5 0.00 1.70 0.61 79 1015.9
20260507122109 13 355 4.8 16.1 0.00 1.70 0.61 80 1015.9
20260507121109 13 58 8.0 12.9 0.00 1.70 0.61 79 1015.8
20260507114109 15 321 4.8 9.7 0.00 1.73 0.61 79 1015.7
20260507113109 15 58 3.2 8.0 0.00 1.73 0.61 78 1015.8
20260507112109 14 240 3.2 9.7 0.00 1.73 0.61 72 1015.8
20260507111108 14 274 3.2 9.7 0.00 1.73 0.61 74 1015.8
20260507110109 14 258 1.6 4.8 0.00 1.73 0.61 76 1015.8
20260507104108 14 241 3.2 6.4 0.00 1.73 0.61 77 1015.8
20260507103108 14 261 1.6 4.8 0.00 1.73 0.61 78 1015.8
20260507102108 14 260 1.6 6.4 0.00 1.73 0.61 78 1015.9
20260507101108 14 264 1.6 6.4 0.00 1.73 0.61 79 1016.0
20260507100108 14 131 1.6 4.8 0.00 1.73 0.61 78 1015.8
20260507095113 13 252 3.2 8.0 0.00 1.73 0.61 79 1015.8
20260507094113 13 275 1.6 4.8 0.00 1.73 0.61 81 1015.8
20260507093112 13 122 0.0 3.2 0.00 1.73 0.61 82 1015.9
20260507092112 13 120 0.0 3.2 0.00 1.73 0.61 83 1015.9
20260507091112 12 183 1.6 6.4 0.00 1.73 0.61 84 1015.8
20260507090112 12 240 1.6 6.4 0.00 1.73 0.61 85 1015.7
20260507085112 12 292 3.2 6.4 0.00 1.73 0.61 85 1015.6
20260507084112 11 257 1.6 4.8 0.00 1.73 0.61 88 1015.6
20260507083112 11 253 0.0 4.8 0.00 1.73 0.61 91 1015.6
20260507082112 11 181 0.0 3.2 0.00 1.73 0.61 92 1015.6
20260507081112 11 248 1.6 8.0 0.00 1.73 0.61 92 1015.5
20260507074111 10 281 0.0 3.2 0.00 1.73 0.61 94 1015.3
20260507073111 10 229 0.0 4.8 0.00 1.73 0.61 95 1015.3
20260507072111 10 257 3.2 12.9 0.00 1.73 0.61 94 1015.2
20260507071111 10 214 1.6 3.2 0.00 1.73 0.61 95 1015.2
20260507065111 10 231 1.6 6.4 0.03 1.73 0.61 95 1015.1
20260507064111 10 212 1.6 8.0 0.03 1.73 0.61 96 1015.0
20260507063111 10 257 0.0 8.0 0.05 1.73 0.61 96 1015.0
20260507062111 10 295 0.0 1.6 0.05 1.73 0.61 96 1014.9
20260507060111 10 200 1.6 6.4 0.03 1.70 0.58 96 1014.7
20260507055110 10 264 0.0 4.8 0.03 1.70 0.58 96 1014.7
20260507054110 10 288 0.0 1.6 0.05 1.70 0.58 96 1014.6
20260507050110 9 199 0.0 3.2 0.03 1.68 0.56 96 1014.1
20260507045110 9 268 0.0 8.0 0.03 1.68 0.56 96 1013.9
20260507042110 9 200 0.0 3.2 0.03 1.65 0.53 96 1013.6
20260507041110 9 264 1.6 9.7 0.05 1.65 0.53 96 1013.6
20260507040110 9 210 3.2 6.4 0.05 1.65 0.53 96 1013.6
20260507034109 9 170 1.6 8.0 0.13 1.65 0.53 96 1013.4
20260507033109 9 179 1.6 6.4 0.13 1.65 0.51 96 1013.4
20260507032109 9 134 1.6 6.4 0.15 1.65 0.51 96 1013.3
20260507031109 9 176 1.6 4.8 0.15 1.63 0.51 96 1013.2
20260507030109 9 251 1.6 9.7 0.15 1.60 0.48 96 1013.1
20260507025109 9 201 1.6 12.9 0.18 1.57 0.46 96 1013.0
20260507024109 9 237 3.2 9.7 0.15 1.55 0.43 96 1013.1
20260507022109 9 127 1.6 9.7 0.15 1.47 0.36 96 1012.9
20260507021113 9 160 3.2 9.7 0.15 1.45 0.33 96 1012.8
20260507020113 9 162 1.6 12.9 0.13 1.45 0.33 96 1012.7
20260507015113 9 247 1.6 6.4 0.10 1.40 0.28 95 1012.6
20260507014113 9 107 1.6 6.4 0.08 1.37 0.25 95 1012.7
20260507013113 9 237 3.2 12.9 0.08 1.37 0.23 95 1012.5
20260507012113 9 113 3.2 9.7 0.05 1.35 0.23 95 1012.5
20260507010112 9 82 3.2 12.9 0.05 1.32 0.20 95 1012.4
20260507005112 9 225 1.6 6.4 0.05 1.30 0.18 95 1012.4
20260507004112 9 232 3.2 8.0 0.05 1.30 0.18 94 1012.4
20260507003112 9 135 3.2 9.7 0.05 1.27 0.15 94 1012.4
20260507002112 9 239 3.2 12.9 0.08 1.27 0.15 94 1012.4
20260507000112 9 236 1.6 8.0 0.05 1.27 0.15 94 1012.3
20260506234112 9 204 3.2 12.9 0.08 1.24 0.13 94 1012.4
20260506233111 9 235 1.6 9.7 0.05 1.22 0.10 94 1012.5
20260506232111 9 158 1.6 8.0 0.05 1.19 0.08 94 1012.6
20260506231111 9 110 1.6 6.4 0.08 1.19 0.08 94 1012.5
20260506230111 9 244 1.6 8.0 0.08 1.19 0.08 94 1012.5
20260506224111 9 121 1.6 14.5 0.05 1.17 0.05 94 1012.4
20260506223111 9 224 3.2 12.9 0.05 1.17 0.05 94 1012.4
20260506222111 9 102 3.2 9.7 0.05 1.14 0.03 94 1012.3
20260506221111 9 200 3.2 12.9 0.03 1.12 0.00 94 1012.2
20260506220111 9 238 1.6 14.5 0.03 1.12 0.00 93 1012.2
20260506215111 9 226 1.6 9.7 0.05 1.12 1.12 94 1012.1
20260506214111 9 245 3.2 16.1 0.05 1.12 1.12 94 1012.0
20260506213111 9 215 1.6 6.4 0.05 1.09 1.09 94 1011.9
20260506212111 9 233 3.2 8.0 0.10 1.09 1.09 94 1011.9
20260506211110 9 110 4.8 14.5 0.13 1.09 1.09 95 1011.8
20260506210110 10 231 1.6 8.0 0.15 1.09 1.09 95 1011.8
20260506202110 10 212 1.6 6.4 0.18 0.99 0.99 95 1011.6
20260506201110 10 153 1.6 4.8 0.18 0.99 0.99 95 1011.5
20260506195110 10 236 3.2 14.5 0.18 0.91 0.91 95 1011.4
20260506194109 10 217 3.2 9.7 0.15 0.89 0.89 95 1011.3
20260506193109 10 172 1.6 17.7 0.15 0.84 0.84 95 1011.1
20260506192109 10 145 0.0 4.8 0.18 0.81 0.81 95 1011.0
20260506191109 10 221 1.6 4.8 0.20 0.79 0.79 95 1010.9
20260506185109 10 230 3.2 9.7 0.20 0.74 0.74 94 1010.8
20260506184109 10 205 1.6 8.0 0.23 0.71 0.71 94 1010.7
20260506183109 10 130 3.2 9.7 0.23 0.69 0.69 94 1010.6
20260506182109 10 231 3.2 9.7 0.20 0.64 0.64 94 1010.5
20260506181108 10 200 3.2 16.1 0.18 0.61 0.61 94 1010.4
20260506180113 10 210 1.6 14.5 0.18 0.56 0.56 94 1010.3
20260506175114 10 248 1.6 8.0 0.20 0.56 0.53 94 1010.2
20260506173113 10 61 1.6 12.9 0.18 0.48 0.46 94 1009.9
20260506172113 10 211 3.2 14.5 0.20 0.46 0.43 94 1009.7
20260506165113 11 224 1.6 6.4 0.18 0.36 0.33 93 1009.5
20260506164113 11 185 1.6 6.4 0.15 0.33 0.30 92 1009.5
20260506163114 11 192 3.2 9.7 0.15 0.30 0.28 92 1009.5
20260506162113 11 221 3.2 16.1 0.15 0.25 0.23 91 1009.4
20260506161112 11 147 3.2 9.7 0.15 0.23 0.23 91 1009.4
20260506160112 11 120 3.2 8.0 0.15 0.23 0.20 90 1009.4
20260506155112 11 110 1.6 9.7 0.13 0.18 0.15 90 1009.3
20260506154112 11 222 3.2 9.7 0.10 0.15 0.15 89 1009.3
20260506153112 11 193 3.2 9.7 0.08 0.15 0.13 88 1009.2
20260506151112 11 167 3.2 12.9 0.03 0.08 0.05 84 1009.1
20260506150112 11 175 4.8 14.5 0.00 0.05 0.05 83 1009.0
20260506145112 11 121 3.2 12.9 0.00 0.05 0.05 84 1009.0